Weather History for Mt. Pocono, PA

Change the Weather History Date:

Wednesday, October 17, 2012

  Actual Average Record
Temperature  
Mean Temperature 46 °F 48 °F  
Max Temperature 61 °F 57 °F 82 °F (1908)
Min Temperature 31 °F 38 °F 16 °F (1916)
Degree Days  
Heating Degree Days 19 17  
Month to date heating degree days 251 253  
Since 1 July heating degree days 469 521  
Cooling Degree Days 0 0  
Month to date cooling degree days 0 0  
Year to date cooling degree days 453 313  
Moisture  
Dew Point 35 °F    
Average Humidity 64    
Maximum Humidity 92    
Minimum Humidity 36    
Precipitation  
Precipitation 0.00 in 0.14 in 1.96 in (1977)
Month to date precipitation 1.63 2.45  
Year to date precipitation 35.34 38.79  
Sea Level Pressure  
Sea Level Pressure 29.98 in    
Wind  
Wind Speed 4 mph (SW)    
Max Wind Speed 12 mph    
Max Gust Speed 16 mph    
Visibility 10 miles    
Events      
T = Trace of Precipitation, MM = Missing Value Source: NWS Daily Summary

Daily Weather History Graph

Daily Weather History Graph

Search for Another Location

Airport:

Trip Planner

Search our weather history database for the weather conditions in past years. The results will help you decide how hot, cold, wet, or windy it might be!

Date:

Astronomy

Oct. 17, 2012 Rise Set
Actual Time 7:15 AM EDT 6:17 PM EDT
Civil Twilight 6:47 AM EDT 6:44 PM EDT
Nautical Twilight 6:15 AM EDT 7:16 PM EDT
Astronomical Twilight 5:44 AM EDT 7:48 PM EDT
Moon 9:49 AM EDT (10/17) 7:49 PM EDT (10/17)
Length of Visible Light 11h 56m
Length of Day
11h 01m
Waxing Crescent, 7% of the Moon is Illuminated
Oct 17
Waxing Crescent
Oct 21
First Quarter
Oct 29
Full
Nov 6
Last Quarter
Nov 13
New

Hourly Weather History & Observations

Time (EDT) Temp. Windchill Dew Point Humidity Pressure Visibility Wind Dir Wind Speed Gust Speed Precip Events Conditions
12:53 AM 35.1 °F - 30.9 °F 85% 29.94 in 10.0 mi Calm Calm - N/A   Clear
1:53 AM 32.0 °F 28.7 °F 30.0 °F 92% 29.95 in 10.0 mi WNW 3.5 mph - N/A   Clear
2:53 AM 30.9 °F 27.5 °F 28.9 °F 92% 29.95 in 10.0 mi NW 3.5 mph - N/A   Clear
3:53 AM 35.1 °F 31.0 °F 30.9 °F 85% 29.94 in 10.0 mi NW 4.6 mph - N/A   Clear
4:53 AM 36.0 °F 32.1 °F 32.0 °F 86% 29.94 in 10.0 mi NNW 4.6 mph - N/A   Clear
5:53 AM 32.0 °F - 28.9 °F 88% 29.96 in 10.0 mi Calm Calm - N/A   Clear
6:53 AM 32.0 °F - 30.0 °F 92% 29.99 in 10.0 mi Calm Calm - N/A   Clear
7:53 AM 32.0 °F - 30.9 °F 96% 30.01 in 10.0 mi Calm Calm - N/A   Clear
8:53 AM 43.0 °F - 36.0 °F 76% 30.01 in 10.0 mi Calm Calm - N/A   Clear
9:53 AM 45.0 °F 42.6 °F 36.0 °F 71% 30.03 in 10.0 mi WSW 4.6 mph - N/A   Clear
10:53 AM 50.0 °F - 37.0 °F 61% 30.02 in 10.0 mi WSW 3.5 mph - N/A   Clear
11:53 AM 54.0 °F - 36.0 °F 51% 30.01 in 10.0 mi Calm Calm - N/A   Clear
12:53 PM 57.0 °F - 33.1 °F 40% 29.99 in 10.0 mi WSW 5.8 mph - N/A   Clear
1:53 PM 60.1 °F - 34.0 °F 38% 29.96 in 10.0 mi West 5.8 mph - N/A   Clear
2:53 PM 60.1 °F - 37.9 °F 44% 29.95 in 10.0 mi SE 10.4 mph - N/A   Clear
3:53 PM 57.9 °F - 37.0 °F 46% 29.95 in 10.0 mi South 8.1 mph - N/A   Clear
4:53 PM 59.0 °F - 36.0 °F 42% 29.95 in 10.0 mi SSW 6.9 mph - N/A   Clear
5:53 PM 54.0 °F - 37.0 °F 53% 29.96 in 10.0 mi SSW 5.8 mph - N/A   Clear
6:53 PM 52.0 °F - 37.9 °F 59% 29.98 in 10.0 mi SSW 4.6 mph - N/A   Clear
7:53 PM 51.1 °F - 37.9 °F 61% 29.99 in 10.0 mi Calm Calm - N/A   Clear
8:53 PM 48.9 °F - 39.0 °F 69% 29.99 in 10.0 mi SSW 3.5 mph - N/A   Clear
9:53 PM 48.0 °F - 39.0 °F 71% 29.99 in 10.0 mi Calm Calm - N/A   Clear
10:53 PM 46.0 °F 43.9 °F 39.0 °F 76% 29.99 in 10.0 mi South 4.6 mph - N/A   Clear
11:53 PM 46.0 °F - 39.0 °F 76% 29.99 in 10.0 mi Calm Calm - N/A   Clear